| time (UTC) | temp F | wind direction | speed knots | gust knots | rain 1hr in | rain 24hr in | rain mn in | humidity % | barometer mb |
| 20260503204306 | 45 | 233 | 0.0 | 0.0 | 0.00 | 0.01 | 0.00 | 98 | 1028.4 |
| 20260503203805 | 45 | 233 | 0.9 | 0.9 | 0.00 | 0.01 | 0.00 | 98 | 1028.4 |
| 20260503203305 | 45 | 233 | 0.0 | 0.9 | 0.00 | 0.01 | 0.00 | 98 | 1028.4 |
| 20260503202804 | 45 | 233 | 0.0 | 0.9 | 0.00 | 0.01 | 0.00 | 98 | 1028.4 |
| 20260503202305 | 45 | 233 | 0.0 | 0.0 | 0.00 | 0.01 | 0.00 | 98 | 1028.4 |
| 20260503201305 | 46 | 233 | 0.0 | 0.0 | 0.00 | 0.01 | 0.00 | 98 | 1028.3 |
| 20260503200806 | 46 | 233 | 0.0 | 0.9 | 0.00 | 0.01 | 0.00 | 98 | 1028.3 |
| 20260503200307 | 46 | 233 | 0.0 | 0.9 | 0.00 | 0.01 | 0.00 | 98 | 1028.3 |
| 20260503195806 | 46 | 233 | 0.0 | 0.9 | 0.00 | 0.01 | 0.00 | 98 | 1028.3 |
| 20260503195305 | 46 | 233 | 0.0 | 0.9 | 0.00 | 0.01 | 0.00 | 98 | 1028.3 |
| 20260503194806 | 46 | 233 | 0.0 | 0.0 | 0.00 | 0.01 | 0.00 | 98 | 1028.3 |
| 20260503194306 | 46 | 233 | 0.0 | 0.9 | 0.00 | 0.01 | 0.00 | 98 | 1028.3 |
| 20260503193807 | 46 | 233 | 0.0 | 1.7 | 0.00 | 0.01 | 0.00 | 97 | 1028.5 |
| 20260503192805 | 46 | 233 | 0.0 | 0.9 | 0.00 | 0.01 | 0.00 | 98 | 1028.5 |
| 20260503192305 | 47 | 233 | 0.0 | 0.9 | 0.00 | 0.01 | 0.00 | 97 | 1028.5 |
| 20260503191805 | 47 | 233 | 0.0 | 0.9 | 0.00 | 0.01 | 0.00 | 97 | 1028.5 |
| 20260503190805 | 47 | 233 | 0.0 | 0.0 | 0.00 | 0.01 | 0.00 | 97 | 1028.5 |
| 20260503190304 | 48 | 233 | 0.0 | 0.9 | 0.00 | 0.01 | 0.00 | 97 | 1028.5 |
| 20260503185805 | 48 | 233 | 0.0 | 0.9 | 0.00 | 0.01 | 0.00 | 98 | 1028.5 |
| 20260503184304 | 48 | 233 | 0.9 | 0.9 | 0.00 | 0.01 | 0.00 | 98 | 1028.5 |
| 20260503183805 | 48 | 233 | 0.0 | 0.9 | 0.00 | 0.01 | 0.00 | 98 | 1028.5 |
| 20260503183305 | 48 | 233 | 0.9 | 1.7 | 0.00 | 0.01 | 0.00 | 98 | 1028.5 |
| 20260503182805 | 48 | 233 | 0.0 | 0.9 | 0.00 | 0.01 | 0.00 | 98 | 1028.4 |
| 20260503182306 | 48 | 233 | 0.0 | 0.9 | 0.00 | 0.01 | 0.00 | 97 | 1028.4 |
| 20260503181805 | 48 | 233 | 0.0 | 0.9 | 0.00 | 0.01 | 0.00 | 98 | 1028.4 |
| 20260503181304 | 48 | 233 | 0.0 | 0.9 | 0.00 | 0.01 | 0.00 | 97 | 1028.4 |
| 20260503180804 | 47 | 233 | 0.0 | 0.9 | 0.00 | 0.01 | 0.00 | 97 | 1028.4 |
| 20260503180305 | 47 | 233 | 0.0 | 0.9 | 0.00 | 0.01 | 0.00 | 97 | 1028.4 |
| 20260503175805 | 47 | 233 | 0.0 | 0.9 | 0.00 | 0.01 | 0.00 | 97 | 1028.4 |
| 20260503175305 | 47 | 233 | 0.0 | 0.9 | 0.00 | 0.01 | 0.00 | 97 | 1028.4 |
| 20260503174805 | 47 | 233 | 0.0 | 0.9 | 0.00 | 0.01 | 0.00 | 97 | 1028.4 |
| 20260503174305 | 47 | 233 | 0.0 | 0.9 | 0.00 | 0.01 | 0.00 | 97 | 1028.4 |
| 20260503173805 | 47 | 233 | 0.0 | 0.0 | 0.00 | 0.01 | 0.00 | 97 | 1028.1 |
| 20260503173305 | 47 | 233 | 0.0 | 0.9 | 0.00 | 0.01 | 0.00 | 96 | 1028.1 |
| 20260503172805 | 47 | 233 | 0.0 | 0.9 | 0.00 | 0.01 | 0.00 | 96 | 1028.1 |
| 20260503172305 | 47 | 233 | 0.0 | 0.9 | 0.00 | 0.01 | 0.00 | 96 | 1028.1 |
| 20260503171806 | 48 | 233 | 0.9 | 0.9 | 0.00 | 0.01 | 0.00 | 96 | 1028.1 |
| 20260503171306 | 48 | 233 | 0.0 | 0.0 | 0.00 | 0.01 | 0.00 | 96 | 1028.1 |
| 20260503170305 | 48 | 233 | 0.0 | 0.0 | 0.00 | 0.01 | 0.00 | 96 | 1028.1 |
| 20260503150805 | 51 | 246 | 0.0 | 0.9 | 0.01 | 0.01 | 0.01 | 95 | 1028.4 |
| 20260503150305 | 51 | 246 | 0.0 | 0.0 | 0.01 | 0.01 | 0.01 | 95 | 1028.4 |
| 20260503140305 | 54 | 246 | 0.0 | 0.9 | 0.00 | 0.01 | 0.00 | 95 | 1028.2 |
| 20260503131305 | 55 | 246 | 0.0 | 0.0 | 0.00 | 0.01 | 0.00 | 94 | 1028.1 |
| 20260503130806 | 56 | 246 | 0.0 | 0.9 | 0.00 | 0.01 | 0.00 | 94 | 1028.1 |
| 20260503130304 | 56 | 246 | 0.0 | 0.9 | 0.00 | 0.01 | 0.00 | 94 | 1027.8 |
| 20260503090304 | 65 | 204 | 1.7 | 4.3 | 0.00 | 0.01 | 0.00 | 82 | 1025.9 |
| 20260503081306 | 67 | 206 | 1.7 | 4.3 | 0.00 | 0.01 | 0.00 | 76 | 1025.9 |
| 20260503080805 | 66 | 220 | 2.6 | 4.3 | 0.00 | 0.01 | 0.00 | 76 | 1025.9 |
| 20260503080306 | 66 | 207 | 2.6 | 4.3 | 0.00 | 0.01 | 0.00 | 76 | 1025.9 |
| 20260503072306 | 67 | 209 | 0.0 | 0.9 | 0.00 | 0.01 | 0.00 | 72 | 1025.9 |
| 20260503071806 | 67 | 209 | 0.9 | 1.7 | 0.00 | 0.01 | 0.00 | 71 | 1025.9 |
| 20260503070805 | 68 | 162 | 0.0 | 1.7 | 0.00 | 0.01 | 0.00 | 69 | 1025.9 |
| 20260503054305 | 69 | 178 | 3.5 | 8.7 | 0.00 | 0.01 | 0.00 | 70 | 1026.1 |
| 20260503053306 | 68 | 54 | 0.9 | 2.6 | 0.00 | 0.01 | 0.00 | 71 | 1026.1 |
| 20260503052804 | 67 | 142 | 0.9 | 2.6 | 0.00 | 0.01 | 0.00 | 70 | 1026.1 |
| 20260503052305 | 67 | 181 | 0.9 | 7.0 | 0.00 | 0.01 | 0.00 | 71 | 1027.3 |
| 20260503051804 | 67 | 160 | 0.9 | 2.6 | 0.00 | 0.01 | 0.00 | 71 | 1027.3 |
| 20260503051305 | 68 | 203 | 2.6 | 6.1 | 0.00 | 0.01 | 0.00 | 70 | 1027.3 |
| 20260503050304 | 68 | 137 | 0.9 | 2.6 | 0.00 | 0.01 | 0.00 | 71 | 1027.3 |
| 20260503045306 | 68 | 230 | 0.9 | 2.6 | 0.00 | 0.01 | 0.00 | 71 | 1027.3 |
| 20260503044806 | 67 | 199 | 1.7 | 2.6 | 0.00 | 0.01 | 0.00 | 72 | 1027.3 |
| 20260503044305 | 66 | 169 | 2.6 | 5.2 | 0.00 | 0.01 | 0.00 | 73 | 1027.3 |
| 20260503043805 | 67 | 185 | 1.7 | 2.6 | 0.00 | 0.01 | 0.00 | 73 | 1027.3 |
| 20260503043304 | 67 | 170 | 0.9 | 2.6 | 0.00 | 0.01 | 0.00 | 76 | 1027.3 |
| 20260503042804 | 66 | 160 | 0.9 | 2.6 | 0.00 | 0.01 | 0.00 | 75 | 1027.3 |
| 20260503042305 | 66 | 145 | 2.6 | 4.3 | 0.00 | 0.01 | 0.00 | 74 | 1027.3 |
| 20260503041804 | 67 | 131 | 0.9 | 2.6 | 0.00 | 0.01 | 0.00 | 74 | 1027.3 |
| 20260503041305 | 67 | 205 | 0.9 | 2.6 | 0.00 | 0.01 | 0.00 | 73 | 1027.3 |
| 20260503040805 | 67 | 104 | 1.7 | 4.3 | 0.00 | 0.01 | 0.00 | 72 | 1027.3 |
| 20260503040306 | 67 | 98 | 2.6 | 6.1 | 0.00 | 0.01 | 0.00 | 73 | 1027.3 |
| 20260503035805 | 66 | 186 | 0.9 | 5.2 | 0.00 | 0.01 | 0.00 | 78 | 1027.3 |
| 20260503035306 | 65 | 203 | 1.7 | 2.6 | 0.00 | 0.01 | 0.00 | 78 | 1027.3 |
| 20260503034805 | 65 | 131 | 2.6 | 7.0 | 0.00 | 0.01 | 0.00 | 78 | 1027.4 |
| 20260503034306 | 64 | 108 | 1.7 | 4.3 | 0.00 | 0.01 | 0.00 | 80 | 1027.4 |
| 20260503033305 | 64 | 105 | 1.7 | 4.3 | 0.00 | 0.01 | 0.00 | 80 | 1027.5 |
| 20260503032806 | 64 | 67 | 2.6 | 6.1 | 0.00 | 0.01 | 0.00 | 79 | 1027.7 |
| 20260503031305 | 63 | 176 | 0.9 | 2.6 | 0.00 | 0.01 | 0.00 | 82 | 1027.7 |
| 20260503030804 | 63 | 166 | 0.9 | 2.6 | 0.00 | 0.01 | 0.00 | 83 | 1027.7 |
| 20260503030305 | 63 | 48 | 0.9 | 2.6 | 0.00 | 0.01 | 0.00 | 85 | 1027.7 |
| 20260503025805 | 62 | 186 | 0.0 | 2.6 | 0.00 | 0.01 | 0.00 | 85 | 1027.7 |
| 20260503025305 | 62 | 217 | 0.9 | 1.7 | 0.00 | 0.01 | 0.00 | 86 | 1027.8 |
| 20260503024805 | 61 | 190 | 0.9 | 1.7 | 0.00 | 0.01 | 0.00 | 87 | 1027.8 |
| 20260503024304 | 61 | 207 | 0.9 | 2.6 | 0.00 | 0.01 | 0.00 | 87 | 1028.1 |
| 20260503023805 | 62 | 149 | 0.9 | 2.6 | 0.00 | 0.01 | 0.00 | 86 | 1028.1 |
| 20260503023305 | 62 | 205 | 1.7 | 2.6 | 0.00 | 0.01 | 0.00 | 85 | 1028.1 |
| 20260503021806 | 61 | 91 | 0.9 | 6.1 | 0.00 | 0.01 | 0.00 | 89 | 1028.1 |
| 20260503020304 | 60 | 243 | 0.0 | 0.9 | 0.00 | 0.01 | 0.00 | 94 | 1028.1 |
| 20260503015805 | 59 | 243 | 0.0 | 0.9 | 0.00 | 0.01 | 0.00 | 94 | 1028.1 |
| 20260503015305 | 59 | 243 | 0.0 | 1.7 | 0.00 | 0.01 | 0.00 | 96 | 1028.1 |
| 20260503014805 | 59 | 243 | 0.9 | 1.7 | 0.00 | 0.01 | 0.00 | 96 | 1028.1 |
| 20260503014305 | 58 | 299 | 0.0 | 0.9 | 0.00 | 0.01 | 0.00 | 98 | 1028.1 |
| 20260503013804 | 58 | 299 | 0.0 | 0.9 | 0.00 | 0.01 | 0.00 | 98 | 1028.1 |
| 20260503013304 | 57 | 299 | 0.9 | 1.7 | 0.00 | 0.01 | 0.00 | 98 | 1028.1 |
| 20260503012804 | 57 | 18 | 0.9 | 2.6 | 0.00 | 0.01 | 0.00 | 99 | 1028.1 |
| 20260503012305 | 57 | 266 | 0.0 | 0.9 | 0.00 | 0.01 | 0.00 | 100 | 1028.0 |
| 20260503011805 | 56 | 266 | 0.9 | 1.7 | 0.00 | 0.01 | 0.00 | 100 | 1028.0 |
| 20260503011304 | 55 | 266 | 0.0 | 0.0 | 0.00 | 0.01 | 0.00 | 100 | 1028.0 |
| 20260503010805 | 55 | 266 | 0.0 | 1.7 | 0.00 | 0.01 | 0.00 | 100 | 1028.0 |
| 20260503005305 | 54 | 266 | 0.0 | 0.0 | 0.00 | 0.01 | 0.00 | 100 | 1028.0 |
| 20260503004305 | 53 | 345 | 0.0 | 1.7 | 0.00 | 0.01 | 0.00 | 100 | 1027.8 |
| 20260503003804 | 53 | 345 | 0.0 | 0.9 | 0.00 | 0.01 | 0.00 | 100 | 1027.8 |
| 20260503002804 | 52 | 345 | 0.0 | 0.9 | 0.00 | 0.01 | 0.00 | 100 | 1027.8 |
| 20260503002305 | 52 | 345 | 0.0 | 1.7 | 0.00 | 0.01 | 0.00 | 100 | 1027.8 |
| 20260503001804 | 52 | 345 | 0.0 | 1.7 | 0.00 | 0.01 | 0.00 | 100 | 1027.8 |
| 20260503001304 | 52 | 345 | 0.9 | 0.9 | 0.00 | 0.01 | 0.00 | 100 | 1027.8 |
| 20260503000806 | 52 | 345 | 0.0 | 0.9 | 0.00 | 0.01 | 0.00 | 100 | 1027.7 |
| 20260503000305 | 51 | 345 | 0.0 | 0.0 | 0.00 | 0.01 | 0.00 | 100 | 1027.7 |
| 20260502235805 | 51 | 345 | 0.0 | 0.9 | 0.00 | 0.01 | 0.00 | 100 | 1027.0 |
| 20260502235305 | 51 | 345 | 0.0 | 0.9 | 0.00 | 0.01 | 0.00 | 99 | 1027.0 |
| 20260502234305 | 50 | 345 | 0.0 | 0.9 | 0.00 | 0.01 | 0.00 | 99 | 1027.0 |
| 20260502233806 | 50 | 345 | 0.0 | 0.9 | 0.00 | 0.01 | 0.00 | 99 | 1027.0 |
| 20260502233305 | 50 | 345 | 0.0 | 0.9 | 0.00 | 0.01 | 0.00 | 99 | 1027.0 |
| 20260502232804 | 50 | 345 | 0.0 | 1.7 | 0.00 | 0.01 | 0.00 | 99 | 1027.0 |
| 20260502232305 | 50 | 340 | 0.9 | 1.7 | 0.00 | 0.01 | 0.00 | 99 | 1027.0 |
| 20260502231806 | 50 | 306 | 0.0 | 0.0 | 0.00 | 0.01 | 0.00 | 99 | 1027.0 |
| 20260502231306 | 50 | 306 | 0.0 | 0.9 | 0.00 | 0.01 | 0.00 | 99 | 1026.5 |
| 20260502230805 | 50 | 306 | 0.0 | 0.9 | 0.00 | 0.01 | 0.00 | 99 | 1026.5 |
| 20260502230306 | 50 | 340 | 0.0 | 0.9 | 0.00 | 0.01 | 0.00 | 99 | 1026.5 |
| 20260502225805 | 50 | 340 | 0.9 | 1.7 | 0.00 | 0.01 | 0.00 | 99 | 1026.5 |
| 20260502225305 | 50 | 340 | 0.9 | 0.9 | 0.00 | 0.01 | 0.00 | 99 | 1026.5 |
| 20260502224306 | 51 | 340 | 0.0 | 0.0 | 0.00 | 0.01 | 0.00 | 99 | 1026.5 |
| 20260502223805 | 51 | 340 | 0.0 | 0.0 | 0.00 | 0.01 | 0.00 | 99 | 1026.5 |
| 20260502222805 | 51 | 340 | 0.0 | 0.0 | 0.00 | 0.01 | 0.00 | 99 | 1026.5 |
| 20260502222305 | 51 | 340 | 0.0 | 0.0 | 0.00 | 0.01 | 0.00 | 99 | 1026.5 |
| 20260502221805 | 51 | 340 | 0.0 | 0.0 | 0.00 | 0.01 | 0.00 | 99 | 1026.5 |
| 20260502221304 | 51 | 340 | 0.0 | 0.0 | 0.00 | 0.01 | 0.00 | 99 | 1026.5 |
| 20260502220804 | 51 | 340 | 0.0 | 0.0 | 0.00 | 0.01 | 0.00 | 99 | 1026.5 |
| 20260502220304 | 51 | 340 | 0.0 | 0.9 | 0.00 | 0.01 | 0.00 | 99 | 1026.5 |
| 20260502215805 | 51 | 340 | 0.9 | 0.9 | 0.00 | 0.01 | 0.00 | 99 | 1026.5 |
| 20260502214305 | 51 | 340 | 0.0 | 1.7 | 0.00 | 0.01 | 0.00 | 99 | 1025.7 |
| 20260502213805 | 51 | 340 | 0.9 | 0.9 | 0.00 | 0.01 | 0.00 | 99 | 1025.7 |
| 20260502213305 | 51 | 340 | 0.9 | 1.7 | 0.00 | 0.01 | 0.00 | 99 | 1025.7 |
| 20260502212806 | 51 | 309 | 0.9 | 2.6 | 0.00 | 0.01 | 0.00 | 99 | 1025.7 |
| 20260502211804 | 51 | 12 | 0.0 | 0.0 | 0.00 | 0.01 | 0.00 | 99 | 1025.7 |
| 20260502211306 | 51 | 12 | 0.0 | 0.0 | 0.00 | 0.01 | 0.00 | 99 | 1025.7 |
| 20260502210805 | 51 | 12 | 0.0 | 0.9 | 0.00 | 0.01 | 0.00 | 99 | 1025.7 |
| 20260502205805 | 51 | 12 | 0.0 | 0.0 | 0.00 | 0.01 | 0.00 | 98 | 1025.7 |
| 20260502205306 | 51 | 12 | 0.0 | 0.9 | 0.00 | 0.01 | 0.00 | 98 | 1025.7 |
| 20260502204805 | 51 | 12 | 0.0 | 0.9 | 0.00 | 0.01 | 0.00 | 98 | 1025.7 |